EA5CBT-13 Weather Reports


time (UTC)temp
C
wind
direction
speed
KPH
gust
KPH
rain 1hr
cm
rain 24hr
cm
rain mn
cm
humidity
%
barometer
mb
20260507023524 17 354 3.2 6.4 0.00 0.00 0.00 80 1008.1
20260507022516 17 0 3.2 6.4 0.00 0.00 0.00 80 1008.2
20260507021609 17 344 1.6 6.4 0.00 0.00 0.00 81 1008.1
20260507020622 17 0 3.2 4.8 0.00 0.00 0.00 81 1008.2
20260507015554 17 357 3.2 6.4 0.00 0.00 0.00 81 1008.3
20260507014546 17 349 3.2 6.4 0.00 0.00 0.00 79 1008.5
20260507013539 17 0 1.6 6.4 0.00 0.00 0.00 77 1008.7
20260507012532 17 0 0.0 3.2 0.00 0.00 0.00 79 1008.8
20260507011545 17 0 0.0 4.8 0.00 0.00 0.00 80 1008.7
20260507010517 17 0 1.6 4.8 0.00 0.00 0.00 80 1008.7
20260507005611 17 0 3.2 6.4 0.00 0.00 0.00 79 1008.8
20260507004602 17 0 3.2 4.8 0.00 0.00 0.00 75 1008.7
20260507003555 17 0 1.6 3.2 0.00 0.00 0.00 75 1008.7
20260507002548 17 0 0.0 1.6 0.00 0.00 0.00 75 1008.8
20260507001540 17 0 0.0 3.2 0.00 0.00 0.00 74 1008.7
20260507000532 17 0 3.2 4.8 0.00 0.00 0.00 73 1008.7
20260506235525 17 0 1.6 3.2 0.00 0.00 0.00 73 1008.7
20260506234517 17 41 1.6 4.8 0.00 0.00 0.00 73 1008.9
20260506233710 17 45 4.8 6.4 0.00 0.00 0.00 73 1009.0
20260506232603 18 45 4.8 11.3 0.00 0.00 0.00 73 1009.1
20260506231617 18 19 4.8 9.7 0.00 0.00 0.00 73 1009.1
20260506230547 17 35 4.8 8.0 0.00 0.00 0.00 73 1009.2
20260506225540 18 40 3.2 6.4 0.00 0.00 0.00 73 1009.2
20260506224533 18 45 3.2 8.0 0.00 0.00 0.00 72 1009.2
20260506223526 18 8 3.2 6.4 0.00 0.00 0.00 73 1009.2
20260506222518 18 33 4.8 12.9 0.00 0.00 0.00 73 1009.0
20260506221610 18 45 6.4 9.7 0.00 0.00 0.00 72 1008.9
20260506220603 18 45 4.8 6.4 0.00 0.00 0.00 72 1009.1
20260506215556 18 35 4.8 8.0 0.00 0.00 0.00 71 1009.1
20260506214607 18 45 4.8 11.3 0.00 0.00 0.00 72 1009.4
20260506213539 18 45 4.8 8.0 0.00 0.00 0.00 72 1009.4
20260506212531 18 64 4.8 11.3 0.00 0.00 0.00 72 1009.7
20260506211523 18 45 3.2 8.0 0.00 0.00 0.00 72 1009.6
20260506210617 18 45 4.8 6.4 0.00 0.00 0.00 73 1009.5
20260506205608 18 81 3.2 4.8 0.00 0.00 0.00 73 1009.5
20260506204620 18 128 3.2 6.4 0.00 0.00 0.00 73 1009.4
20260506203552 18 60 3.2 6.4 0.00 0.00 0.00 72 1009.4
20260506202545 18 90 3.2 6.4 0.00 0.00 0.00 73 1009.3
20260506201556 18 82 3.2 6.4 0.00 0.00 0.00 72 1009.2
20260506200548 18 45 3.2 6.4 0.00 0.00 0.00 71 1009.0
20260506195520 18 105 3.2 11.3 0.00 0.00 0.00 72 1008.8
20260506194613 18 58 6.4 11.3 0.00 0.00 0.00 72 1008.7
20260506193606 18 129 4.8 9.7 0.00 0.00 0.00 72 1008.6
20260506192557 18 71 4.8 9.7 0.00 0.00 0.00 72 1008.4
20260506191550 18 62 4.8 8.0 0.00 0.00 0.00 72 1008.4
20260506190541 18 135 3.2 6.4 0.00 0.00 0.00 71 1008.5
20260506185533 18 77 3.2 6.4 0.00 0.00 0.00 71 1008.3
20260506184526 18 83 6.4 12.9 0.00 0.00 0.00 71 1008.2
20260506183517 18 116 6.4 11.3 0.00 0.00 0.00 70 1008.0
20260506182610 18 114 4.8 12.9 0.00 0.00 0.00 70 1007.9
20260506181602 19 102 4.8 9.7 0.00 0.00 0.00 70 1008.0
20260506180615 19 125 4.8 9.7 0.00 0.00 0.00 70 1008.0
20260506175606 19 84 4.8 12.9 0.00 0.00 0.00 70 1007.9
20260506174538 19 87 8.0 14.5 0.00 0.00 0.00 70 1007.9
20260506173551 20 54 6.4 12.9 0.00 0.00 0.00 70 1007.9
20260506172523 19 117 6.4 12.9 0.00 0.00 0.00 70 1007.8
20260506171615 20 121 8.0 12.9 0.00 0.00 0.00 69 1007.8
20260506170609 20 23 9.7 12.9 0.00 0.00 0.00 67 1007.7
20260506165600 20 89 6.4 14.5 0.00 0.00 0.00 67 1007.8
20260506164552 20 40 6.4 12.9 0.00 0.00 0.00 68 1007.8
20260506163544 20 150 11.3 17.7 0.00 0.00 0.00 69 1007.7
20260506162558 20 99 9.7 17.7 0.00 0.00 0.00 69 1007.8
20260506161529 20 150 9.7 14.5 0.00 0.00 0.00 68 1007.9
20260506160600 20 135 9.7 12.9 0.00 0.00 0.00 67 1008.0
20260506155613 20 111 9.7 17.7 0.00 0.00 0.00 65 1007.9
20260506154606 21 92 9.7 16.1 0.00 0.00 0.00 64 1007.8
20260506153558 21 56 12.9 19.3 0.00 0.00 0.00 63 1007.7
20260506152549 21 64 12.9 20.9 0.00 0.00 0.00 62 1007.8
20260506151541 21 64 11.3 20.9 0.00 0.00 0.00 61 1007.8
20260506150534 21 51 11.3 22.5 0.00 0.00 0.00 62 1007.9
20260506145526 21 143 8.0 14.5 0.00 0.00 0.00 61 1007.9
20260506144520 21 358 9.7 16.1 0.00 0.00 0.00 60 1007.9
20260506143631 22 62 11.3 24.1 0.00 0.00 0.00 59 1007.9
20260506142603 22 58 9.7 12.9 0.00 0.00 0.00 60 1007.8
20260506141556 22 100 11.3 24.1 0.00 0.00 0.00 59 1008.0
20260506140548 22 45 6.4 12.9 0.00 0.00 0.00 58 1008.0
20260506135540 22 17 11.3 17.7 0.00 0.00 0.00 59 1008.1
20260506134533 22 150 11.3 19.3 0.00 0.00 0.00 57 1008.2
20260506133524 22 58 11.3 20.9 0.00 0.00 0.00 59 1008.3
20260506132517 22 48 9.7 22.5 0.00 0.00 0.00 55 1008.3
20260506131610 22 130 11.3 19.3 0.00 0.00 0.00 54 1008.4
20260506130602 22 115 9.7 16.1 0.00 0.00 0.00 55 1008.4
20260506125634 22 29 11.3 22.5 0.00 0.00 0.00 60 1008.4
20260506124546 22 97 9.7 17.7 0.00 0.00 0.00 58 1008.6
20260506123538 22 67 9.7 20.9 0.00 0.00 0.00 59 1008.6
20260506122530 22 121 8.0 17.7 0.00 0.00 0.00 63 1008.7
20260506121522 22 81 11.3 22.5 0.00 0.00 0.00 60 1008.8
20260506120615 22 0 6.4 16.1 0.00 0.00 0.00 55 1008.8
20260506115627 22 146 8.0 19.3 0.00 0.00 0.00 58 1009.0
20260506114559 22 45 12.9 22.5 0.00 0.00 0.00 60 1008.9
20260506113552 22 45 11.3 20.9 0.00 0.00 0.00 57 1009.0
20260506112544 22 90 9.7 20.9 0.00 0.00 0.00 58 1009.1
20260506111536 22 29 14.5 24.1 0.00 0.00 0.00 62 1009.1
20260506110529 21 42 16.1 27.4 0.00 0.00 0.00 63 1008.9
20260506105522 22 33 14.5 20.9 0.00 0.00 0.00 63 1009.0
20260506104615 21 35 12.9 24.1 0.00 0.00 0.00 63 1009.1
20260506103606 21 52 16.1 25.7 0.00 0.00 0.00 62 1009.1
20260506102620 22 28 14.5 24.1 0.00 0.00 0.00 61 1009.3
20260506101612 22 52 12.9 20.9 0.00 0.00 0.00 61 1009.2
20260506100543 22 0 12.9 17.7 0.00 0.00 0.00 56 1009.2
20260506095536 22 34 14.5 24.1 0.00 0.00 0.00 61 1009.1
20260506094527 22 44 14.5 24.1 0.00 0.00 0.00 56 1009.1
20260506093540 22 74 14.5 25.7 0.00 0.00 0.00 60 1009.0
20260506092612 22 44 14.5 22.5 0.00 0.00 0.00 58 1008.8
20260506091604 22 45 14.5 22.5 0.00 0.00 0.00 58 1008.6
20260506090557 22 50 16.1 25.7 0.00 0.00 0.00 57 1008.7
20260506085550 21 31 14.5 25.7 0.00 0.00 0.00 60 1008.6
20260506084541 21 4 14.5 27.4 0.00 0.00 0.00 61 1008.5
20260506083554 21 49 14.5 24.1 0.00 0.00 0.00 61 1008.6
20260506082526 21 56 11.3 19.3 0.00 0.00 0.00 63 1008.6
20260506081518 21 61 14.5 22.5 0.00 0.00 0.00 63 1008.6
20260506080611 21 23 9.7 17.7 0.00 0.00 0.00 61 1008.6
20260506072541 21 66 8.0 12.9 0.00 0.00 0.00 62 1008.8
20260506071534 21 42 6.4 9.7 0.00 0.00 0.00 60 1008.7
20260506070526 20 45 6.4 8.0 0.00 0.00 0.00 54 1008.8
20260506061548 18 45 1.6 4.8 0.00 0.00 0.00 47 1008.7
20260506060540 17 45 3.2 4.8 0.00 0.00 0.00 53 1008.6
20260506050556 15 45 4.8 9.7 0.00 0.00 0.00 61 1007.7
20260506044541 15 0 1.6 3.2 0.00 0.00 0.00 65 1007.4
20260506043534 15 0 0.0 3.2 0.00 0.00 0.00 68 1007.3
20260506042545 15 0.0 1.6 0.00 0.00 0.00 70 1007.3
20260506041518 15 0 0.0 3.2 0.00 0.00 0.00 73 1007.3
20260506040611 16 0.0 1.6 0.00 0.00 0.00 75 1007.3
20260506035603 16 0 0.0 3.2 0.00 0.00 0.00 75 1007.4
20260506034555 16 0.0 1.6 0.00 0.00 0.00 75 1007.5
20260506033548 16 0 0.0 3.2 0.00 0.00 0.00 76 1007.6
20260506032540 16 0.0 1.6 0.00 0.00 0.00 76 1007.7
20260506031532 16 0.0 1.6 0.00 0.00 0.00 75 1007.7
20260506030526 16 0.0 1.6 0.00 0.00 0.00 75 1007.7
20260506025517 16 0.0 1.6 0.00 0.00 0.00 75 1007.7
20260506024632 16 0 0.0 3.2 0.00 0.00 0.00 75 1007.7